Lafayette, IN

7:46 PM EDT on August 31, 2016 (GMT -0400)
Purdue Univ

Weather History for KLAF - June, 2011

Change the Weather History Date:

Saturday, June 4, 2011

  Actual Average Record
Temperature  
Mean Temperature 84 °F 68 °F  
Max Temperature 97 °F 79 °F 97 °F (2011)
Min Temperature 70 °F 57 °F 41 °F (1969)
Degree Days  
Heating Degree Days 0 2  
Month to date heating degree days 0 8  
Since 1 June heating degree days 0 8  
Since 1 July heating degree days 5646 5658  
Cooling Degree Days 19 5  
Month to date cooling degree days 45 18  
Year to date cooling degree days 172 95  
Since 1 June cooling degree days 45 18  
Growing Degree Days 34 (Base 50)    
Moisture  
Dew Point 66 °F    
Average Humidity 56    
Maximum Humidity 73    
Minimum Humidity 39    
Precipitation  
Precipitation 0.19 in 0.15 in 3.18 in (1973)
Month to date precipitation 0.19 0.61  
Year to date precipitation 14.83 14.63  
Sea Level Pressure  
Sea Level Pressure 30.04 in    
Wind  
Wind Speed 7 mph (West)    
Max Wind Speed 32 mph    
Max Gust Speed 44 mph    
Visibility 8 miles    
Events Rain , Thunderstorm    
T = Trace of Precipitation, MM = Missing Value Source: NWS Daily Summary

Daily Weather History Graph

Daily Weather History Graph

Search for Another Location

Airport or City:

Trip Planner

Search our weather history database for the weather conditions in past years. The results will help you decide how hot, cold, wet, or windy it might be!

Date:

Astronomy

Jun. 04, 2011 Rise Set
Actual Time 6:18 AM EDT 9:13 PM EDT
Civil Twilight 5:46 AM EDT 9:46 PM EDT
Nautical Twilight 5:04 AM EDT 10:27 PM EDT
Astronomical Twilight 4:17 AM EDT 11:15 PM EDT
Moon 8:49 AM EDT (6/4) 11:41 PM EDT (6/4)
Length of Visible Light 16h 00m
Length of Day
14h 55m
Waxing Crescent, 8% of the Moon is Illuminated
Jun 4
Waxing Crescent
Jun 8
First Quarter
Jun 15
Full
Jun 23
Last Quarter
Jul 1
New

Hourly Weather History & Observations

Time (EDT) Temp. Heat Index Dew Point Humidity Pressure Visibility Wind Dir Wind Speed Gust Speed Precip Events Conditions
12:54 AM 75.9 °F - 59.0 °F 56% 30.07 in 10.0 mi Variable 3.5 mph - N/A   Clear
1:54 AM 75.0 °F - 60.1 °F 60% 30.06 in 10.0 mi Calm Calm - N/A   Clear
2:54 AM 73.9 °F - 60.1 °F 62% 30.05 in 10.0 mi South 4.6 mph - N/A   Clear
3:54 AM 73.0 °F - 60.1 °F 64% 30.05 in 10.0 mi Calm Calm - N/A   Clear
4:54 AM 73.0 °F - 60.1 °F 64% 30.06 in 10.0 mi Calm Calm - N/A   Clear
5:54 AM 72.0 °F - 61.0 °F 68% 30.07 in 10.0 mi SW 3.5 mph - N/A   Clear
6:54 AM 72.0 °F - 61.0 °F 68% 30.08 in 10.0 mi Calm Calm - N/A   Clear
7:54 AM 73.9 °F - 64.0 °F 71% 30.09 in 10.0 mi SSW 3.5 mph - N/A   Clear
8:54 AM 79.0 °F - 68.0 °F 69% 30.08 in 9.0 mi WSW 5.8 mph - N/A   Clear
9:54 AM 82.9 °F 88.0 °F 72.0 °F 69% 30.08 in 7.0 mi WSW 9.2 mph - N/A   Clear
10:54 AM 86.0 °F 93.0 °F 73.0 °F 65% 30.06 in 5.0 mi West 12.7 mph - N/A   Haze
11:54 AM 90.0 °F 97.9 °F 73.0 °F 57% 30.04 in 5.0 mi West 10.4 mph - N/A   Haze
12:54 PM 93.0 °F 100.1 °F 71.1 °F 49% 30.03 in 6.0 mi West 15.0 mph 23.0 mph N/A   Haze
1:54 PM 93.9 °F 100.3 °F 70.0 °F 46% 30.01 in 10.0 mi West 15.0 mph 21.9 mph N/A   Clear
2:54 PM 96.1 °F 101.0 °F 68.0 °F 40% 30.00 in 10.0 mi WSW 13.8 mph 20.7 mph N/A   Clear
3:54 PM 95.0 °F 99.0 °F 66.9 °F 40% 29.99 in 10.0 mi WSW 13.8 mph 20.7 mph N/A   Partly Cloudy
4:54 PM 95.0 °F 100.7 °F 69.1 °F 43% 29.96 in 10.0 mi West 11.5 mph - N/A   Partly Cloudy
5:54 PM 93.9 °F 99.1 °F 69.1 °F 44% 29.93 in 10.0 mi WSW 13.8 mph 20.7 mph N/A   Partly Cloudy
6:54 PM 91.9 °F 97.4 °F 70.0 °F 48% 29.97 in 10.0 mi NW 13.8 mph - N/A   Clear
6:58 PM 87.8 °F 91.4 °F 68.0 °F 52% 30.00 in 3.0 mi North 32.2 mph 43.7 mph N/A   Haze
7:00 PM 84.2 °F 86.6 °F 66.2 °F 55% 30.02 in 0.2 mi North 28.8 mph 43.7 mph N/A   Widespread Dust
7:12 PM 75.2 °F - 66.2 °F 73% 30.00 in 2.0 mi NNE 26.5 mph 38.0 mph N/A   Widespread Dust
7:20 PM 75.2 °F - 66.2 °F 73% 30.01 in 8.0 mi North 18.4 mph 38.0 mph N/A Thunderstorm Widespread Dust
7:30 PM 73.4 °F - 66.2 °F 78% 30.04 in 1.8 mi NNE 28.8 mph 39.1 mph 0.07 in Rain , Thunderstorm Heavy Thunderstorms and Rain
7:40 PM 71.6 °F - 64.4 °F 78% 30.04 in 3.0 mi North 16.1 mph 40.3 mph 0.11 in Rain , Thunderstorm Thunderstorms and Rain
7:54 PM 72.0 °F - 66.0 °F 81% 30.06 in 10.0 mi North 13.8 mph 24.2 mph 0.11 in Thunderstorm Thunderstorm
8:54 PM 71.1 °F - 68.0 °F 90% 30.03 in 9.0 mi Calm Calm - 0.06 in Rain , Thunderstorm Light Rain
9:15 PM 71.6 °F - 69.8 °F 94% 30.04 in 6.0 mi South 3.5 mph - 0.01 in Rain Light Rain
9:54 PM 71.1 °F - 69.1 °F 93% 30.05 in 8.0 mi ESE 3.5 mph - 0.01 in   Clear
10:54 PM 72.0 °F - 68.0 °F 87% 30.12 in 8.0 mi South 5.8 mph - 0.00 in Rain Light Rain
11:54 PM 71.1 °F - 66.9 °F 87% 30.09 in 10.0 mi Calm Calm - 0.01 in   Clear